Portada
METAR-TAF:

METAR-TAF

Aeroports :

Monbetsu, Japó

latitud: 44-15N, longitud: 143-32E, altitud: 6 m

Observació

L'informe es va fer fa 1 hora i 58 minuts, a les 07:00 UTC
Vent 8 kt del Nord-Oest
Temperatura -6°C
Humitat 73%
Pressió 1028 hPa
Visibilitat 10 km o més
Escasses núvols a una alçada de 3000 ft
Núvols disperses a una alçada de 5000 ft

METAR: RJEB 270700Z 31008KT 9999 FEW030 SCT050 M06/M10 Q1028

Hora: 17:58 (08:58 UTC)


TAF: manca

Observacions i pronòstics meteorològics de més de 4000 aeroports (METAR i TAF).

Les estacions disponibles són els punts grocs i vermells al mapa.

Posi el ratolí al punt desitjat per veure el nom de l'estació.

Feu clic per veure les observacions i els pronòstics meteorològics.

Per canviar el mapa: feu clic els botons verds amb una creu de color negre per apropar; al botó verd amb un guió per allunyar la imatge; o en les fletxes verdes per a mapes adjacents.


METAR-TAF: